• In Austria
  • List of Countries
  • For 7 days
  • Water Temperature
  • Satellite Maps
  • Weather Map
  • News
  • Weather Widgets
  • user-avatar
    Login

    Hourly Weather Saurimo

    Today, 15 November, Thursday

    Time Temperature Precipitation Wind Pressure Humidity
    00:00 +21°C° 0 mm 1 mps 669 mmHg 87%
    01:00 +19°C° 0 mm 2 mps 668 mmHg 90%
    02:00 +19°C° 0 mm 2 mps 668 mmHg 92%
    03:00 +18°C° 0 mm 2 mps 668 mmHg 94%
    04:00 +19°C° 0 mm 1 mps 668 mmHg 96%
    05:00 +21°C° 0 mm 1 mps 669 mmHg 90%
    06:00 +21°C° 0 mm 2 mps 670 mmHg 83%
    07:00 +24°C° 0 mm 2 mps 671 mmHg 75%
    08:00 +27°C° 0 mm 2 mps 671 mmHg 63%
    09:00 +30°C° 0 mm 2 mps 671 mmHg 51%
    10:00 +33°C° 0 mm 1 mps 672 mmHg 39%
    11:00 +35°C° 0 mm 1 mps 671 mmHg 33%
    12:00 +37°C° 0 mm 1 mps 671 mmHg 28%
    13:00 +36°C° 0 mm 0 mps 671 mmHg 26%
    14:00 +34°C° 0 mm 0 mps 670 mmHg 28%
    15:00 +34°C° 0 mm 1 mps 669 mmHg 30%
    16:00 +32°C° 0 mm 1 mps 669 mmHg 32%
    17:00 +30°C° 0 mm 1 mps 669 mmHg 36%
    18:00 +28°C° 0 mm 1 mps 669 mmHg 40%
    19:00 +26°C° 0 mm 1 mps 669 mmHg 45%
    20:00 +25°C° 0 mm 1 mps 669 mmHg 48%
    21:00 +24°C° 0 mm 1 mps 669 mmHg 51%
    22:00 +23°C° 0 mm 1 mps 669 mmHg 54%
    23:00 +22°C° 0 mm 1 mps 669 mmHg 58%

    Tomorrow, 16 November, Friday

    Time Temperature Precipitation Wind Pressure Humidity
    00:00 +22°C° 0 mm 1 mps 669 mmHg 61%
    01:00 +21°C° 0 mm 1 mps 669 mmHg 64%
    02:00 +21°C° 0 mm 1 mps 669 mmHg 67%
    03:00 +20°C° 0 mm 1 mps 669 mmHg 71%
    04:00 +20°C° 0 mm 1 mps 669 mmHg 74%
    05:00 +20°C° 0 mm 2 mps 670 mmHg 74%
    06:00 +21°C° 0 mm 2 mps 670 mmHg 75%
    07:00 +22°C° 0 mm 3 mps 671 mmHg 75%
    08:00 +24°C° 0 mm 3 mps 671 mmHg 71%
    09:00 +26°C° 0 mm 3 mps 672 mmHg 68%
    10:00 +27°C° 0 mm 3 mps 672 mmHg 64%
    11:00 +29°C° 0.1 mm 3 mps 672 mmHg 58%
    12:00 +30°C° 0.1 mm 2 mps 672 mmHg 53%
    13:00 +31°C° 0.1 mm 2 mps 672 mmHg 47%
    14:00 +30°C° 0.6 mm 2 mps 671 mmHg 58%
    15:00 +28°C° 0.6 mm 3 mps 670 mmHg 68%
    16:00 +26°C° 0.6 mm 3 mps 670 mmHg 78%
    17:00 +25°C° 0.3 mm 2 mps 670 mmHg 83%
    18:00 +23°C° 0.3 mm 2 mps 670 mmHg 89%
    19:00 +22°C° 0.3 mm 1 mps 670 mmHg 94%
    20:00 +22°C° 0 mm 1 mps 670 mmHg 95%
    21:00 +21°C° 0 mm 1 mps 671 mmHg 96%
    22:00 +21°C° 0 mm 1 mps 671 mmHg 96%
    23:00 +21°C° 0 mm 1 mps 671 mmHg 97%

    Day after tomorrow, 17 November, Saturday

    Time Temperature Precipitation Wind Pressure Humidity
    00:00 +21°C° 0 mm 1 mps 670 mmHg 97%
    01:00 +20°C° 0 mm 1 mps 670 mmHg 97%
    02:00 +20°C° 0 mm 1 mps 670 mmHg 97%
    03:00 +20°C° 0 mm 1 mps 670 mmHg 98%
    04:00 +20°C° 0 mm 1 mps 669 mmHg 98%
    05:00 +21°C° 0 mm 1 mps 670 mmHg 94%
    06:00 +22°C° 0 mm 1 mps 671 mmHg 90%
    07:00 +23°C° 0 mm 2 mps 671 mmHg 87%
    08:00 +26°C° 0 mm 2 mps 672 mmHg 72%
    09:00 +29°C° 0 mm 1 mps 673 mmHg 57%
    10:00 +33°C° 0 mm 1 mps 673 mmHg 42%
    11:00 +33°C° 0 mm 1 mps 672 mmHg 41%
    12:00 +34°C° 0 mm 1 mps 672 mmHg 40%
    13:00 +32°C° 0 mm 0 mps 671 mmHg 38%
    14:00 +31°C° 0 mm 0 mps 670 mmHg 41%
    15:00 +32°C° 0 mm 1 mps 670 mmHg 43%
    16:00 +31°C° 0 mm 1 mps 669 mmHg 45%
    17:00 +29°C° 1 mm 1 mps 669 mmHg 56%
    18:00 +26°C° 1 mm 2 mps 669 mmHg 67%
    19:00 +24°C° 1 mm 2 mps 669 mmHg 78%
    20:00 +23°C° 1.5 mm 2 mps 670 mmHg 84%
    21:00 +21°C° 1.5 mm 2 mps 671 mmHg 90%
    22:00 +21°C° 1.5 mm 1 mps 671 mmHg 96%
    23:00 +20°C° 0.2 mm 1 mps 671 mmHg 96%

    18 November, Sunday

    Time Temperature Precipitation Wind Pressure Humidity
    00:00 +20°C° 0.2 mm 1 mps 670 mmHg 96%
    01:00 +20°C° 0.2 mm 1 mps 670 mmHg 96%
    02:00 +20°C° 0.3 mm 1 mps 670 mmHg 97%
    03:00 +20°C° 0.3 mm 1 mps 670 mmHg 97%
    04:00 +20°C° 0.3 mm 1 mps 669 mmHg 97%
    05:00 +21°C° 0.1 mm 1 mps 670 mmHg 95%
    06:00 +21°C° 0.1 mm 1 mps 671 mmHg 93%
    07:00 +22°C° 0.1 mm 1 mps 671 mmHg 90%
    08:00 +24°C° 0 mm 1 mps 672 mmHg 78%
    09:00 +27°C° 0 mm 1 mps 672 mmHg 66%
    10:00 +29°C° 0 mm 2 mps 673 mmHg 54%
    11:00 +30°C° 0.2 mm 1 mps 672 mmHg 51%
    12:00 +31°C° 0.2 mm 1 mps 671 mmHg 49%
    13:00 +32°C° 0.2 mm 1 mps 671 mmHg 47%
    14:00 +31°C° 0.3 mm 1 mps 670 mmHg 53%
    15:00 +29°C° 0.3 mm 2 mps 669 mmHg 59%
    16:00 +28°C° 0.3 mm 2 mps 669 mmHg 65%
    17:00 +26°C° 0.1 mm 2 mps 669 mmHg 73%
    18:00 +24°C° 0.1 mm 1 mps 669 mmHg 81%
    19:00 +22°C° 0.1 mm 1 mps 669 mmHg 89%
    20:00 +22°C° 0 mm 1 mps 669 mmHg 90%
    21:00 +21°C° 0 mm 1 mps 670 mmHg 91%
    22:00 +21°C° 0 mm 1 mps 670 mmHg 92%
    23:00 +20°C° 0 mm 1 mps 669 mmHg 92%

    19 November, Monday

    Time Temperature Precipitation Wind Pressure Humidity
    00:00 +18°C° 0 mm 0 mps 669 mmHg 93%
    01:00 +18°C° 0 mm 0 mps 669 mmHg 94%
    02:00 +18°C° 0 mm 0 mps 669 mmHg 95%
    03:00 +17°C° 0 mm 0 mps 669 mmHg 95%
    04:00 +17°C° 0 mm 0 mps 669 mmHg 95%
    05:00 +18°C° 0 mm 0 mps 669 mmHg 91%
    06:00 +19°C° 0 mm 0 mps 670 mmHg 87%
    07:00 +21°C° 0 mm 0 mps 671 mmHg 82%
    08:00 +22°C° 0 mm 0 mps 671 mmHg 75%
    09:00 +26°C° 0 mm 1 mps 671 mmHg 68%
    10:00 +27°C° 0 mm 1 mps 672 mmHg 61%
    11:00 +29°C° 0 mm 1 mps 671 mmHg 55%
    12:00 +30°C° 0 mm 1 mps 670 mmHg 49%
    13:00 +32°C° 0 mm 2 mps 670 mmHg 44%
    14:00 +31°C° 0 mm 2 mps 669 mmHg 46%
    15:00 +30°C° 0 mm 2 mps 669 mmHg 48%
    16:00 +30°C° 0 mm 2 mps 669 mmHg 50%
    17:00 +28°C° 0.1 mm 2 mps 669 mmHg 57%
    18:00 +26°C° 0.1 mm 2 mps 669 mmHg 65%
    19:00 +24°C° 0.1 mm 1 mps 670 mmHg 73%
    20:00 +24°C° 0 mm 1 mps 670 mmHg 77%
    21:00 +23°C° 0 mm 1 mps 670 mmHg 80%
    22:00 +22°C° 0 mm 1 mps 670 mmHg 84%
    23:00 +22°C° 0 mm 1 mps 669 mmHg 85%

    20 November, Tuesday

    Time Temperature Precipitation Wind Pressure Humidity
    00:00 +21°C° 0 mm 1 mps 669 mmHg 87%
    01:00 +21°C° 0 mm 1 mps 668 mmHg 88%
    02:00 +21°C° 0 mm 1 mps 668 mmHg 90%
    03:00 +20°C° 0 mm 1 mps 668 mmHg 91%
    04:00 +20°C° 0 mm 1 mps 668 mmHg 93%
    05:00 +21°C° 0.1 mm 1 mps 669 mmHg 87%
    06:00 +23°C° 0.1 mm 1 mps 670 mmHg 82%
    07:00 +24°C° 0.1 mm 1 mps 671 mmHg 76%
    08:00 +27°C° 0.4 mm 1 mps 671 mmHg 69%
    09:00 +29°C° 0.4 mm 1 mps 672 mmHg 62%
    10:00 +31°C° 0.4 mm 1 mps 672 mmHg 55%
    11:00 +30°C° 1.3 mm 2 mps 671 mmHg 58%
    12:00 +30°C° 1.3 mm 2 mps 670 mmHg 61%
    13:00 +29°C° 1.3 mm 2 mps 670 mmHg 64%
    14:00 +27°C° 1.9 mm 2 mps 669 mmHg 72%
    15:00 +26°C° 1.9 mm 2 mps 669 mmHg 80%
    16:00 +24°C° 1.9 mm 1 mps 669 mmHg 88%
    17:00 +23°C° 0.2 mm 1 mps 669 mmHg 90%
    18:00 +23°C° 0.2 mm 1 mps 670 mmHg 92%
    19:00 +22°C° 0.2 mm 1 mps 670 mmHg 93%
    20:00 +22°C° 0 mm 1 mps 670 mmHg 93%
    21:00 +21°C° 0 mm 1 mps 670 mmHg 94%
    22:00 +21°C° 0 mm 1 mps 670 mmHg 94%
    23:00 +21°C° 0 mm 1 mps 670 mmHg 94%
    Show more